This is the latest recevied weather packets stored in our database for station/object M0HPP-13. If no packets are shown the sender has not sent any weather packets the latest 10 day(s).
| Time | Temp. | Humidity | Pressure | Rain* | Wind** | Luminosity | Snow |
|---|---|---|---|---|---|---|---|
| 1777774819 | 5.56° C | 90% | 1015.6 hPa | 0 mm | - | 0 W/m² | - |
| 1777774219 | 5.56° C | 91% | 1015.7 hPa | 0 mm | - | 0 W/m² | - |
| 1777773619 | 5.56° C | 91% | 1015.8 hPa | 0 mm | - | 0 W/m² | - |
| 1777773019 | 6.11° C | 91% | 1015.9 hPa | 0 mm | - | 0 W/m² | - |
| 1777771819 | 6.11° C | 91% | 1016 hPa | 0 mm | - | 0 W/m² | - |
| 1777770619 | 6.11° C | 93% | 1016 hPa | 0 mm | - | 0 W/m² | - |
| 1777764619 | 6.11° C | 96% | 1016.3 hPa | 0 mm | - | 0 W/m² | - |
| 1777761019 | 6.11° C | 98% | 1016.4 hPa | 0 mm | - | 0 W/m² | - |
| 1777760419 | 6.11° C | 98% | 1016.4 hPa | 0 mm | - | 0 W/m² | - |
| 1777759819 | 6.11° C | 98% | 1016.4 hPa | 0 mm | - | 0 W/m² | - |
| 1777759219 | 6.11° C | 99% | 1016.5 hPa | 0 mm | - | 0 W/m² | - |
| 1777758619 | 6.11° C | 99% | 1016.4 hPa | 0 mm | - | 0 W/m² | - |
| 1777757419 | 6.67° C | 99% | 1016.5 hPa | 0 mm | - | 0 W/m² | - |
| 1777756819 | 6.67° C | 99% | 1016.6 hPa | 0 mm | - | 0 W/m² | - |
| 1777756219 | 6.67° C | 99% | 1016.7 hPa | 0 mm | - | 0 W/m² | - |
| 1777755619 | 6.67° C | 99% | 1016.6 hPa | 0 mm | - | 0 W/m² | - |
| 1777753219 | 6.67° C | 99% | 1016.4 hPa | 0 mm | - | 0 W/m² | - |
| 1777752619 | 6.67° C | 99% | 1016.4 hPa | 0 mm | - | 0 W/m² | - |
| 1777752019 | 6.67° C | 99% | 1016.3 hPa | 0 mm | - | 1 W/m² | - |
| 1777751419 | 6.67° C | 99% | 1016 hPa | 0 mm | - | 3 W/m² | - |
| 1777750219 | 6.67° C | 99% | 1016.1 hPa | 0 mm | - | 8 W/m² | - |
| 1777749619 | 6.67° C | 99% | 1016.1 hPa | 0 mm | - | 9 W/m² | - |
| 1777749019 | 6.67° C | 99% | 1016.1 hPa | 0 mm | - | 12 W/m² | - |
| 1777747819 | 6.67° C | 99% | 1016 hPa | 0 mm | - | 20 W/m² | - |
| 1777746619 | 6.67° C | 99% | 1015.9 hPa | 0 mm | - | 11 W/m² | - |
* Rain latest hour (hover to see other rain measurements)
** Current wind speed in m/s (hover to see current wind gust speed)